EW4543 Weather Reports


Display with metric or nautical units.
time (UTC)temp
F
wind
direction
speed
MPH
gust
MPH
rain 1hr
in
rain 24hr
in
rain mn
in
humidity
%
barometer
mb
20260902073028 51 200 0.0 1.0 0.00 0.00 0.00 82 1012.8
20260902071524 52 142 0.0 1.0 0.00 0.00 0.00 82 1013.2
20260902070024 52 142 0.0 0.0 0.00 0.00 0.00 81 1013.0
20260902064521 52 142 0.0 1.0 0.00 0.00 0.00 80 1013.1
20260902063041 53 142 0.0 1.0 0.00 0.00 0.00 78 1013.2
20260902061520 53 142 0.0 0.0 0.00 0.00 0.00 77 1013.0
20260902060023 54 142 0.0 1.0 0.00 0.00 0.00 77 1013.2
20260902054522 54 142 0.0 0.0 0.00 0.00 0.00 76 1013.4
20260902053018 55 142 0.0 0.0 0.00 0.00 0.00 75 1013.3
20260902051519 55 142 0.0 0.0 0.00 0.00 0.00 74 1013.4
20260902050022 55 142 0.0 1.0 0.00 0.00 0.00 74 1013.4
20260902044531 56 234 0.0 0.0 0.00 0.00 0.00 71 1013.3
20260902043015 56 235 0.0 0.0 0.00 0.00 0.00 70 1013.2
20260902041512 57 235 0.0 0.0 0.00 0.00 0.00 68 1012.9
20260902040011 58 234 0.0 1.0 0.00 0.00 0.00 67 1012.5
20260902034508 59 193 0.0 1.0 0.00 0.00 0.00 65 1012.2
20260902033008 60 201 0.0 2.0 0.00 0.00 0.00 63 1011.9
20260902031523 60 210 0.0 2.0 0.00 0.00 0.00 61 1011.5
20260902030108 61 156 0.0 0.0 0.00 0.00 0.00 58 1011.1
20260902024519 62 158 0.0 0.0 0.00 0.00 0.00 55 1010.9
20260902023027 63 158 0.0 1.0 0.00 0.00 0.00 53 1010.7
20260902021519 64 286 0.0 2.0 0.00 0.00 0.00 51 1010.6
20260902020022 65 210 0.0 1.0 0.00 0.00 0.00 50 1010.5
20260902014517 66 246 0.0 3.0 0.00 0.00 0.00 49 1010.5
20260902013017 68 258 0.0 1.0 0.00 0.00 0.00 47 1010.3
20260902011520 68 198 1.0 4.0 0.00 0.00 0.00 45 1010.3
20260902010018 68 286 0.0 4.0 0.00 0.00 0.00 47 1010.4
20260902004516 69 239 0.0 3.0 0.00 0.00 0.00 47 1010.3
20260902003015 69 191 0.0 3.0 0.00 0.00 0.00 47 1010.3
20260902001514 70 191 0.0 3.0 0.00 0.00 0.00 45 1010.3
20260902000013 70 202 0.0 3.0 0.00 0.00 0.00 45 1010.3
20260901234512 69 137 1.0 3.0 0.00 0.04 0.00 46 1010.4
20260901233013 70 304 1.0 4.0 0.00 0.04 0.00 44 1010.5
20260901231511 70 259 2.0 5.0 0.00 0.04 0.00 43 1010.6
20260901230009 71 243 0.0 3.0 0.00 0.04 0.00 43 1010.6
20260901224511 71 143 0.0 3.0 0.00 0.06 0.00 44 1010.7
20260901223007 70 233 2.0 5.0 0.00 0.06 0.00 44 1010.6
20260901221506 71 224 1.0 5.0 0.00 0.06 0.00 43 1010.8
20260901220005 71 280 1.0 5.0 0.00 0.06 0.00 45 1010.7
20260901214502 71 269 3.0 5.0 0.00 0.06 0.00 45 1010.9
20260901213006 69 131 0.0 4.0 0.00 0.06 0.00 47 1011.1
20260901211508 69 195 1.0 4.0 0.00 0.06 0.00 46 1011.1
20260901210004 70 167 2.0 5.0 0.00 0.08 0.00 44 1011.2
20260901204501 71 214 2.0 4.0 0.00 0.08 0.00 44 1011.2
20260901203059 69 293 1.0 5.0 0.00 0.08 0.00 51 1011.2
20260901201558 69 217 0.0 5.0 0.00 0.08 0.00 49 1011.2
20260901200055 69 117 1.0 4.0 0.00 0.08 0.00 51 1011.5
20260901194602 68 242 0.0 5.0 0.00 0.11 0.00 53 1011.6
20260901193052 67 301 1.0 4.0 0.00 0.11 0.00 56 1011.7
20260901191552 66 247 1.0 4.0 0.00 0.11 0.00 57 1011.7
20260901190050 67 206 1.0 3.0 0.00 0.11 0.00 57 1011.8
20260901184546 65 142 1.0 4.0 0.00 0.13 0.00 59 1011.6
20260901183103 64 240 1.0 3.0 0.00 0.13 0.00 62 1011.5
20260901181541 63 228 0.0 2.0 0.00 0.13 0.00 64 1011.8
20260901180038 61 227 1.0 5.0 0.00 0.13 0.00 67 1011.9
20260901174535 61 297 1.0 4.0 0.00 0.13 0.00 69 1012.2
20260901173032 59 244 0.0 3.0 0.00 0.13 0.00 72 1012.0
20260901171544 58 227 0.0 2.0 0.00 0.13 0.00 75 1011.9
20260901170040 57 143 0.0 5.0 0.00 0.13 0.00 75 1011.9
20260901164520 56 158 1.0 3.0 0.00 0.13 0.00 76 1011.8
20260901163020 56 203 0.0 1.0 0.00 0.13 0.00 79 1011.5
20260901161514 55 203 1.0 3.0 0.00 0.13 0.00 79 1011.5
20260901160013 54 145 0.0 2.0 0.00 0.13 0.00 80 1011.3
20260901154509 54 195 0.0 5.0 0.00 0.13 0.00 82 1011.1
20260901153009 53 123 0.0 3.0 0.00 0.13 0.00 83 1011.1
20260901151508 53 233 0.0 1.0 0.00 0.13 0.00 87 1010.9
20260901150008 53 215 0.0 3.0 0.00 0.13 0.00 87 1010.8
20260901144502 52 243 0.0 2.0 0.00 0.13 0.00 87 1010.3
20260901143108 52 205 0.0 3.0 0.00 0.13 0.00 88 1010.1
20260901141607 52 209 0.0 3.0 0.00 0.13 0.00 88 1010.1
20260901140058 52 221 0.0 3.0 0.00 0.13 0.00 89 1009.9
20260901134552 52 86 0.0 1.0 0.00 0.13 0.00 89 1009.7
20260901133151 52 213 0.0 0.0 0.00 0.13 0.00 90 1009.9
20260901131555 52 178 0.0 2.0 0.00 0.13 0.00 91 1009.7
20260901130042 52 233 0.0 1.0 0.00 0.13 0.00 91 1009.8
20260901124644 52 172 0.0 1.0 0.00 0.13 0.00 91 1010.0
20260901123040 51 201 0.0 0.0 0.00 0.13 0.00 91 1009.9
20260901121638 51 202 0.0 1.0 0.00 0.13 0.00 91 1009.5
20260901120104 51 162 0.0 0.0 0.00 0.13 0.00 92 1009.2
20260901114650 50 104 0.0 0.0 0.00 0.13 0.00 92 1009.0
20260901113058 49 104 0.0 0.0 0.00 0.13 0.00 91 1009.0
20260901111504 48 184 0.0 1.0 0.00 0.13 0.00 90 1008.8
20260901110055 49 212 0.0 0.0 0.00 0.13 0.00 90 1008.6
20260901104653 49 212 0.0 0.0 0.00 0.13 0.00 90 1008.5
20260901103136 49 212 0.0 0.0 0.00 0.13 0.00 89 1008.3
20260901101607 50 212 0.0 0.0 0.00 0.13 0.00 89 1008.3
20260901100055 50 212 0.0 0.0 0.00 0.13 0.00 89 1008.6
20260901094646 51 212 0.0 0.0 0.00 0.13 0.00 89 1008.6
20260901093049 51 212 0.0 0.0 0.00 0.13 0.00 89 1008.6
20260901091645 51 212 0.0 0.0 0.00 0.13 0.00 89 1008.8
20260901090100 51 212 0.0 0.0 0.00 0.13 0.00 88 1008.7
20260901084547 52 212 0.0 0.0 0.00 0.13 0.00 88 1008.8
20260901083143 52 212 0.0 0.0 0.00 0.13 0.00 88 1008.8
20260901081546 52 212 0.0 1.0 0.00 0.13 0.00 87 1008.9
20260901080103 52 139 0.0 0.0 0.00 0.13 0.00 87 1009.0
20260901074638 52 183 0.0 0.0 0.00 0.13 0.00 86 1009.0